EHI
0 0 0 1 2 2 1 0 0 0 0 0 0 0 0 0 0 1 2 2 2 2 1 0 0 0 0 0 0 0 0 0 0 0 0 0 0 0 0 0 0 0 0
0 0 0 1 2 2 1 0 0 0 0 0 0 0 0 0 0 1 2 2 1 1 1 0 0 0 0 0 0 0 0 0 0 0 0 0 0 0 0 0 0 0 0
0 0 0 1 2 1 0 0 0 0 0 0 0 0 0 0 0 0 1 1 0 0 0 0 0 0 0 0 0 0 0 0 0 0 0 0 0 0 0 0 0 0 0
0 0 0 1 2 1 0 0 0 0 0 0 0 0 0 0 0 0 0 0 0 0 0 0 0 0 0 0 0 0 0 0 0 0 0 0 0 0 0 0 0 0 0
0 0 0 1 2 1 0 0 0 0 0 0 0 0 0 0 0 0 0 0 0 0 0 0 0 0 0 0 0 0 0 0 0 0 0 0 0 0 0 0 0 0 0
0 0 0 2 2 1 0 0 0 0 0 0 0 0 0 0 0 0 0 0 0 0 0 0 0 0 0 0 0 0 0 0 0 0 0 0 0 0 0 0 0 0 0
0 0 0 1 2 1 0 0 0 0 0 0 0 0 0 0 0 0 0 0 0 0 0 0 0 0 0 0 0 0 0 0 0 0 0 0 0 0 0 0 0 0 0
0 0 0 1 1 1 0 0 0 0 0 0 0 0 0 0 0 0 0 0 0 0 0 0 0 0 0 0 0 0 0 0 0 0 0 0 0 0 0 0 0 0 0
0 0 0 0 0 0 0 0 0 0 0 0 0 0 0 0 0 0 0 0 0 0 0 0 0 0 0 0 0 0 0 0 0 0 0 0 0 0 0 0 0 0 0
0 0 0 0 0 0 0 0 0 0 0 0 0 0 0 0 0 0 0 0 0 0 0 0 0 0 0 0 0 0 0 0 0 0 0 0 0 0 0 0 0 0 0
0 0 0 0 0 0 0 0 0 0 0 0 0 0 0 0 0 0 0 0 0 0 0 0 0 0 0 0 0 0 0 0 0 0 0 0 0 0 0 0 0 0 0
0 0 0 0 0 0 0 0 0 0 0 0 0 0 0 0 0 0 0 0 0 0 0 0 0 0 0 0 0 0 0 0 0 0 0 0 0 0 0 0 0 0 0
0 0 0 0 0 0 0 0 0 0 0 0 0 0 0 0 0 0 0 0 0 0 0 0 0 0 0 0 0 0 0 0 0 0 0 0 0 0 0 0 0 0 0
0 0 0 0 0 0 0 0 0 0 0 0 0 0 0 0 0 0 0 0 0 0 0 0 0 0 0 0 0 0 0 0 0 0 0 0 0 0 0 0 0 0 0
0 0 0 0 0 0 0 0 0 0 0 0 0 0 0 0 0 0 0 0 0 0 0 0 0 0 0 0 0 0 0 0 0 0 0 0 0 0 0 0 0 0 0
0 0 0 0 0 0 0 0 0 0 0 0 0 0 0 0 0 0 0 0 0 0 0 0 0 0 0 0 0 0 0 0 0 0 0 0 0 0 0 0 0 0 0
0 0 0 0 0 0 0 0 0 0 0 0 0 0 0 0 0 0 1 0 0 0 0 0 0 0 0 0 0 0 0 0 0 0 0 0 0 0 0 0 0 0 0
0 0 0 0 0 0 0 0 0 0 0 0 0 0 0 0 0 0 0 0 0 0 0 0 0 0 0 0 0 0 0 0 0 0 0 0 0 0 0 0 0 0 0
0 0 0 0 0 0 0 0 0 0 0 0 0 0 0 0 0 0 0 0 0 0 0 0 0 0 0 0 0 0 0 0 0 0 0 0 0 0 0 0 0 0 0
0 0 0 0 0 0 0 0 0 0 0 0 0 0 0 0 0 0 0 0 0 0 0 0 0 0 0 0 0 0 0 0 0 0 0 0 0 0 0 0 0 0 0
0 0 0 0 0 0 0 0 0 0 0 0 0 0 0 0 0 0 0 0 0 0 0 0 0 0 0 0 0 0 0 0 0 0 0 0 0 0 0 0 0 0 0
0 0 0 0 0 0 0 0 0 0 0 0 0 0 0 0 0 0 0 0 0 0 0 0 0 0 0 0 0 0 0 0 0 0 0 0 0 0 0 0 0 0 0
0 0 0 0 0 0 0 0 0 0 0 0 0 0 0 0 0 0 0 0 0 0 0 0 0 0 0 0 0 0 0 0 0 0 0 0 0 0 0 0 0 0 0
0 0 0 0 0 0 0 0 0 0 0 0 0 0 0 0 0 0 0 0 0 0 0 0 0 0 0 0 0 0 0 0 0 0 0 0 0 0 0 0 0 0 0
0 0 0 0 0 0 0 0 0 0 0 0 0 0 0 0 0 0 0 0 0 0 0 0 0 0 0 0 0 0 0 0 0 0 0 0 0 0 0 0 0 0 0
0 0 0 0 0 0 0 0 0 0 0 0 0 0 0 0 0 0 0 0 0 0 0 0 0 0 0 0 0 0 0 0 0 0 0 0 0 0 0 0 0 0 0
Wind_Speed
3 2 2 2 3 2 3 3 2 2 2 2 2 2 1 1 1 2 3 3 3 3 3 2 3 3 3 4 5 4 5 4 4 3 3 2 2 1 1 1 1 2 2
2 2 2 2 2 3 3 3 3 3 3 2 2 1 1 1 1 1 3 3 3 3 2 3 2 3 3 4 5 5 4 3 3 3 3 2 2 1 1 1 0 0 1
3 2 2 2 2 2 3 3 3 3 3 3 2 2 1 1 2 2 2 3 3 3 2 3 3 3 4 4 5 5 6 5 3 2 2 3 3 2 1 1 0 1 1
3 2 2 2 2 3 3 3 3 3 3 4 4 4 3 3 3 2 2 3 3 3 3 3 3 3 3 4 5 5 4 6 5 3 1 1 1 2 2 2 1 1 1
2 2 2 3 2 2 2 3 3 3 3 4 4 4 4 3 2 3 3 3 3 3 3 3 3 3 3 4 5 5 5 4 5 4 3 2 2 2 2 3 2 2 2
2 1 1 1 2 1 2 2 3 3 3 4 4 5 5 4 3 4 3 3 3 3 3 3 3 3 3 4 5 5 6 5 5 4 4 3 3 4 3 3 3 2 2
1 1 1 1 1 2 2 2 3 3 3 4 4 5 5 5 5 4 4 4 3 3 4 3 4 3 3 3 4 5 5 6 6 5 4 4 3 2 2 3 2 2 1
2 2 2 2 2 2 2 3 3 3 3 4 4 4 4 3 3 4 4 4 4 3 4 4 4 4 4 3 4 4 5 5 5 5 4 3 3 3 3 3 3 2 2
3 3 3 3 2 2 3 3 3 3 4 4 4 4 4 4 4 4 4 4 4 3 4 4 4 4 4 4 4 4 5 5 5 4 5 4 3 3 3 3 3 3 4
4 4 3 3 3 3 3 2 3 3 3 3 3 3 4 4 4 4 5 5 4 4 4 5 4 4 4 4 4 4 5 5 5 4 5 4 3 3 3 3 4 4 4
5 4 3 3 3 3 2 2 2 3 3 3 3 4 4 4 4 5 5 5 4 5 5 5 5 5 5 5 5 5 5 6 5 5 6 5 4 4 4 4 4 4 4
4 4 4 3 3 3 3 2 2 3 3 3 3 4 3 4 5 5 5 5 5 5 6 6 6 6 6 6 6 6 6 6 7 7 6 6 5 6 5 4 5 5 5
4 3 3 3 3 3 3 3 2 3 3 3 3 3 3 4 5 5 5 5 5 5 6 6 7 7 7 7 7 7 7 6 7 7 7 7 7 7 5 6 5 5 4
4 4 3 3 3 3 3 3 3 3 3 3 3 3 4 4 4 5 5 5 5 6 6 7 7 7 7 7 7 7 7 7 6 7 7 7 8 8 7 6 6 5 5
5 5 4 4 3 3 3 3 3 3 3 3 3 4 4 4 4 4 5 5 5 6 6 6 6 7 6 7 7 7 7 7 6 6 7 7 7 8 7 6 6 6 5
6 6 5 5 4 4 4 4 3 3 3 4 4 4 4 4 4 4 4 5 5 5 5 6 6 7 6 8 9 8 7 6 6 6 6 6 8 9 10 10 10 9 8
6 6 6 5 5 4 4 4 4 3 3 4 4 4 4 4 4 4 4 4 5 5 5 6 6 6 7 9 10 10 7 7 7 6 6 5 6 8 7 8 9 9 10
6 6 5 5 5 4 4 3 3 3 4 4 4 4 3 4 3 4 4 4 4 5 5 5 6 6 6 8 9 10 7 6 6 6 6 6 6 6 6 6 6 6 6
5 5 5 5 4 4 3 3 3 3 3 4 4 4 4 4 4 4 4 3 3 4 4 5 5 6 6 7 8 8 5 5 5 5 6 6 6 8 8 6 5 4 4
4 4 4 3 3 3 3 3 3 3 4 4 4 4 4 3 4 4 4 3 3 3 3 4 4 5 5 6 6 6 4 4 4 4 5 7 7 9 9 7 6 6 5
4 4 3 3 3 3 2 3 3 4 4 4 3 3 3 3 3 3 3 3 3 3 3 3 4 4 4 5 6 5 3 3 4 3 4 4 8 9 9 7 6 6 5
5 4 3 3 3 2 2 3 4 4 4 3 3 3 3 2 2 2 2 3 3 3 3 3 3 2 3 4 5 5 5 4 3 3 3 3 6 7 7 6 5 6 5
4 4 3 3 3 3 3 4 4 4 3 2 2 2 2 2 2 2 2 2 3 3 3 2 2 2 2 2 4 5 4 4 3 2 3 3 4 4 4 5 5 4 3
4 3 3 3 4 3 4 4 4 3 2 2 2 2 1 2 1 1 2 2 2 2 2 2 2 2 2 2 2 2 2 3 3 2 2 3 3 3 3 3 3 2 2
3 3 3 4 5 4 4 4 3 2 2 2 2 2 1 1 1 1 1 2 2 3 3 2 2 2 2 3 3 2 2 2 3 2 2 1 2 2 2 1 1 1 2
4 4 4 4 4 4 4 4 3 2 2 2 2 1 1 1 1 1 1 1 1 2 2 2 2 1 1 2 3 4 4 4 5 4 3 2 2 2 2 2 2 2 2
Wind_Direction
233 222 215 206 187 178 184 185 180 178 169 162 161 175 186 177 160 163 150 149 148 144 139 137 155 150 151 155 149 140 138 135 137 127 109 80 63 66 67 70 87 86 80
232 223 219 203 196 189 193 197 197 186 185 183 177 188 187 210 178 173 166 162 161 156 154 153 159 157 153 158 158 154 151 149 175 167 155 159 167 130 54 56 77 108 115
252 234 221 221 218 212 211 210 209 198 192 179 152 145 159 173 176 196 183 183 174 166 173 165 157 170 169 171 171 171 172 168 184 209 199 182 186 150 167 181 211 217 198
259 249 231 227 232 235 229 224 218 206 190 178 167 168 197 208 207 203 204 190 180 177 188 172 172 174 180 179 179 179 183 178 180 187 234 269 143 177 170 180 192 221 238
254 249 250 244 238 233 227 222 217 207 192 184 178 183 207 221 216 192 200 189 187 191 189 183 183 181 185 187 184 183 188 194 194 187 178 176 180 201 201 200 189 201 223
265 258 260 271 250 229 220 220 217 212 201 195 191 190 203 208 207 198 205 200 189 191 193 194 197 194 190 198 192 190 193 196 197 197 194 190 192 187 198 203 202 214 206
287 281 283 285 286 265 236 219 217 226 220 209 204 201 204 204 210 211 209 207 199 200 202 202 205 206 205 204 201 195 196 198 200 202 206 209 212 191 195 191 200 228 230
291 296 290 278 274 269 261 237 221 224 226 222 215 212 210 207 217 215 214 217 211 208 206 212 214 212 207 207 204 204 199 198 202 208 209 212 207 198 197 190 192 217 232
312 305 306 301 286 272 261 246 236 232 232 230 221 216 214 213 221 221 220 220 214 207 202 210 217 217 215 214 210 210 204 201 202 206 209 213 211 209 205 200 208 213 228
318 318 315 305 295 282 269 253 238 241 246 240 233 223 220 221 224 222 224 218 211 206 200 205 211 215 215 212 212 214 210 205 207 206 208 213 213 209 205 209 217 230 236
313 311 304 300 301 297 279 252 243 246 250 246 240 237 230 225 225 224 223 217 212 206 205 207 209 212 215 213 212 215 214 209 209 209 210 214 212 216 208 209 214 222 226
303 300 293 294 293 285 279 264 254 252 257 252 244 241 240 231 229 227 226 219 216 213 211 211 212 213 214 214 215 215 216 218 213 210 210 213 212 221 214 209 216 219 219
303 300 294 289 288 279 272 272 265 257 257 253 249 249 244 239 235 230 226 223 219 218 217 213 214 215 216 216 219 219 220 223 220 213 212 213 211 217 217 215 218 218 217
294 289 287 289 290 285 277 271 275 274 259 255 256 258 255 244 239 234 226 224 221 219 218 217 217 217 216 216 217 220 223 223 223 218 218 217 214 216 216 216 217 215 216
293 288 283 285 287 290 288 282 280 279 268 260 260 262 264 255 244 237 230 224 222 222 219 218 217 217 216 215 216 217 220 221 222 221 220 220 219 220 220 220 214 210 214
292 289 287 286 283 285 289 286 284 286 277 260 260 265 266 254 243 239 233 225 222 221 217 216 215 215 218 221 221 220 218 220 220 222 221 219 216 217 224 229 225 216 213
291 289 287 285 285 284 283 280 283 284 273 267 266 263 262 260 249 241 232 228 223 220 219 218 217 220 225 223 221 219 220 218 219 221 220 219 219 217 220 225 228 225 225
291 290 290 289 292 292 289 288 282 272 270 271 273 266 258 262 257 241 235 234 229 222 221 223 223 225 229 229 224 217 218 219 219 219 220 220 217 214 213 216 221 224 227
291 291 289 289 291 287 289 284 273 270 271 273 277 277 262 253 251 242 239 236 228 229 227 225 224 227 230 228 223 217 211 212 217 216 219 221 216 209 207 205 208 219 230
307 307 308 303 296 299 297 275 269 270 272 279 281 279 271 261 250 245 238 234 226 226 227 227 226 226 229 221 214 213 208 210 215 219 220 223 222 210 204 201 200 212 219
313 313 306 300 298 300 290 278 280 279 286 290 283 275 270 263 256 252 239 223 219 219 222 226 231 230 230 218 210 211 205 208 213 220 224 223 221 216 211 211 209 210 207
318 316 305 304 310 302 284 281 283 293 299 292 276 268 270 269 256 243 233 215 204 207 215 219 230 232 224 220 213 211 211 208 208 220 231 227 217 212 213 214 207 203 200
311 312 304 305 313 305 286 279 293 304 301 290 279 273 272 271 262 240 223 212 204 206 210 214 220 227 226 218 215 211 212 216 216 222 223 213 198 200 204 202 202 200 191
303 306 304 300 303 305 296 288 294 293 284 281 285 285 272 276 277 254 229 216 207 206 208 210 216 223 222 213 201 200 202 205 211 212 206 204 191 188 185 185 200 208 201
297 294 288 289 293 300 299 299 294 283 276 279 281 280 280 285 287 281 267 252 249 231 219 218 218 213 222 222 209 193 198 197 193 175 172 172 170 179 182 180 185 191 188
292 290 288 288 292 296 296 296 290 275 264 269 273 268 263 264 268 282 338 345 285 281 261 246 246 253 246 218 202 200 194 188 175 167 170 177 185 190 194 196 192 189 194